CW1172 Uddevalla SE current weather conditions

sailwx.info

Wind from 270

Air temperature 3.3° C
Dewpoint 2.2° C

Last reported at 2020-Feb-23 19:45 UTC.
Time now 2020-Feb-23 20:45 UTC

Location: N 58°13' E 011°56'.
View on Google Maps.

See reports from other nearby stations

  
Tides and Currents Weather Stations Pressure Air Temp Water Temp Dewpoint Dewpoint Depression Visibility Wind Speed Wind Dir Waves Ship Positions
date/time (UTC)wind fromknots sea level pressurealtimeterstation pressurevisibilityair tempwater tempwave heightnotes
2020-Feb-23 19:45 270 3.3
2020-Feb-23 19:30 282 3.9
2020-Feb-23 19:15 263 3.9
2020-Feb-23 18:45 289 4.4
2020-Feb-23 18:30 322 4.4
2020-Feb-23 18:15 261 5.0
2020-Feb-23 17:45 298 0 5.0
2020-Feb-23 17:30 312 1 5.0
2020-Feb-23 17:15 271 1 5.0
2020-Feb-23 16:45 320 1 5.0
2020-Feb-23 16:30 264 5.0
2020-Feb-23 16:15 298 0 5.0
2020-Feb-23 15:45 278 2 5.0
2020-Feb-23 15:30 230 2 5.0
2020-Feb-23 15:15 241 2 5.0
2020-Feb-23 14:45 270 5 5.0
2020-Feb-23 14:30 309 4 5.6
2020-Feb-23 14:15 256 5 5.6
2020-Feb-23 13:45 256 4 5.6
2020-Feb-23 13:30 287 4 5.6
2020-Feb-23 13:15 247 5 5.6
2020-Feb-23 12:45 336 7 6.1
2020-Feb-23 12:30 350 6 6.1
2020-Feb-23 12:15 294 6 6.1
2020-Feb-23 12:01 254 6 6.1
2020-Feb-23 11:46 250 8 6.1
2020-Feb-23 11:32 319 8 6.1
2020-Feb-23 11:17 298 8 6.1
2020-Feb-23 11:01 181 10 6.1
2020-Feb-23 10:46 296 8 6.1
2020-Feb-23 10:31 140 6 6.1
2020-Feb-23 10:18 256 6 6.1
2020-Feb-23 10:01 301 5 6.1
2020-Feb-23 09:46 248 9 6.1
2020-Feb-23 09:31 278 6 6.1
2020-Feb-23 09:16 288 9 6.1
2020-Feb-23 09:01 175 6 6.1
2020-Feb-23 08:46 267 6 6.1
2020-Feb-23 08:31 277 8 5.6
2020-Feb-23 08:17 289 7 5.6
2020-Feb-23 08:01 220 4 5.6
2020-Feb-23 07:46 280 6 5.6
2020-Feb-23 07:31 277 6 5.6
2020-Feb-23 07:16 291 8 5.6
2020-Feb-23 07:01 296 6 5.6
2020-Feb-23 06:47 275 7 5.6
2020-Feb-23 06:31 308 6 5.6
2020-Feb-23 06:16 289 6 5.6
2020-Feb-23 06:01 237 6 5.6
2020-Feb-23 05:46 267 7 5.6
2020-Feb-23 05:31 010 8 5.6
2020-Feb-23 05:16 311 6 5.6
2020-Feb-23 05:01 244 6 5.6
2020-Feb-23 04:45 275 5 5.6
2020-Feb-23 04:31 263 8 5.6
2020-Feb-23 04:16 265 8 5.6
2020-Feb-23 04:00 261 8 5.6
2020-Feb-23 03:46 233 8 5.6
2020-Feb-23 03:31 236 9 5.6
2020-Feb-23 03:16 268 9 5.6
2020-Feb-23 03:01 333 11 5.6
2020-Feb-23 02:46 184 12 5.6
2020-Feb-23 02:31 232 12 5.6
2020-Feb-23 02:16 267 12 5.6
2020-Feb-23 02:01 316 12 5.6
2020-Feb-23 01:45 271 11 5.6
2020-Feb-23 01:31 246 11 5.6
2020-Feb-23 01:15 007 11 5.6
2020-Feb-23 01:01 257 12 5.6
2020-Feb-23 00:46 277 11 5.6
2020-Feb-23 00:32 294 11 5.6
2020-Feb-23 00:16 296 11 5.6
2020-Feb-23 00:00 253 14 5.6
2020-Feb-22 23:45 232 12 5.6
2020-Feb-22 23:30 257 13 5.6
2020-Feb-22 23:15 222 9 5.6
2020-Feb-22 23:00 280 13 5.6
2020-Feb-22 22:45 229 10 5.6
2020-Feb-22 22:30 206 12 5.6
2020-Feb-22 22:15 265 9 5.0
2020-Feb-22 22:00 120 11 5.0
2020-Feb-22 21:45 267 11 5.0
2020-Feb-22 21:30 294 6 5.0
2020-Feb-22 21:15 302 6 5.0
2020-Feb-22 21:00 289 6 5.0
2020-Feb-22 20:45 265 7 5.0
2020-Feb-22 20:30 250 11 5.0
2020-Feb-22 20:15 202 7 4.4
2020-Feb-22 20:00 305 7 5.0
2020-Feb-22 19:45 268 7 4.4
2020-Feb-22 19:30 199 6 4.4
2020-Feb-22 19:15 291 7 4.4
2020-Feb-22 19:00 223 10 4.4
2020-Feb-22 18:45 206 7 4.4
2020-Feb-22 18:30 292 8 4.4
2020-Feb-22 18:16 294 9 4.4
2020-Feb-22 18:01 227 7 4.4
2020-Feb-22 17:47 267 9 4.4
2020-Feb-22 17:31 313 7 4.4
2020-Feb-22 17:17 206 6 4.4
2020-Feb-22 17:02 294 8 4.4
2020-Feb-22 16:46 256 9 5.0
2020-Feb-22 16:32 325 9 5.0
2020-Feb-22 16:17 210 4 5.0
2020-Feb-22 16:01 315 7 5.6
2020-Feb-22 15:46 339 6 5.6
2020-Feb-22 15:30 304 7 5.6
2020-Feb-22 15:16 315 5 5.6
2020-Feb-22 15:00 250 7 5.6
2020-Feb-22 14:45 246 7 5.6
2020-Feb-22 14:30 346 9 6.1
2020-Feb-22 14:15 230 6 6.1
2020-Feb-22 14:01 299 10 6.7
2020-Feb-22 13:46 6.7
2020-Feb-22 13:30 246 10 6.7
2020-Feb-22 13:15 312 11 6.7
2020-Feb-22 13:00 261 10 6.7
2020-Feb-22 12:45 289 10 6.7
2020-Feb-22 12:30 263 10 6.7
2020-Feb-22 12:16 250 10 6.7
2020-Feb-22 12:00 280 13 6.1
2020-Feb-22 11:45 268 12 6.1
2020-Feb-22 11:30 257 12 6.1
2020-Feb-22 11:15 281 13 6.1
2020-Feb-22 11:00 229 12 6.7
2020-Feb-22 10:45 196 13 6.7
2020-Feb-22 10:30 282 13 6.7
2020-Feb-22 10:15 241 12 7.2
2020-Feb-22 10:00 224 13 7.8
2020-Feb-22 09:45 250 14 7.8
2020-Feb-22 09:31 261 13 7.2
2020-Feb-22 09:16 212 16 7.2
2020-Feb-22 09:02 230 15 7.2
2020-Feb-22 08:46 246 13 7.2
2020-Feb-22 08:32 233 17 7.2
2020-Feb-22 08:16 229 14 7.2
2020-Feb-22 08:01 213 14 7.2
2020-Feb-22 07:46 236 15 7.2
2020-Feb-22 07:31 192 13 7.2
2020-Feb-22 07:17 244 15 7.2
2020-Feb-22 07:01 209 14 7.2
2020-Feb-22 06:46 172 15 7.2
2020-Feb-22 06:31 244 13 7.2
2020-Feb-22 06:16 240 14 7.2
2020-Feb-22 06:01 212 15 7.2
2020-Feb-22 05:45 230 13 6.7
2020-Feb-22 05:31 256 13 6.7
2020-Feb-22 05:15 224 11 6.7
2020-Feb-22 05:01 237 13 6.7
2020-Feb-22 04:46 178 10 6.7
2020-Feb-22 04:31 193 13 6.7
2020-Feb-22 04:16 189 12 6.7
2020-Feb-22 04:00 236 11 6.7
2020-Feb-22 03:46 222 12 6.7
2020-Feb-22 03:31 227 11 6.7
2020-Feb-22 03:15 234 11 6.7
2020-Feb-22 03:00 253 12 6.7
2020-Feb-22 02:46 263 11 6.7
2020-Feb-22 02:31 213 10 6.7
2020-Feb-22 02:15 205 10 6.7
2020-Feb-22 02:00 222 13 6.7
2020-Feb-22 01:45 181 12 6.7
2020-Feb-22 01:30 208 12 6.7
2020-Feb-22 01:15 195 12 6.7
2020-Feb-22 01:00 186 11 6.7
2020-Feb-22 00:45 216 13 6.7
2020-Feb-22 00:30 199 12 6.7
2020-Feb-22 00:15 202 11 6.1
2020-Feb-22 00:00 210 11 6.1
2020-Feb-21 23:45 234 12 6.1
2020-Feb-21 23:31 192 11 6.1
2020-Feb-21 23:16 213 12 6.1
2020-Feb-21 23:02 176 11 6.1
2020-Feb-21 22:46 241 12 6.1
2020-Feb-21 22:31 224 11 6.1
2020-Feb-21 22:17 230 13 6.1
2020-Feb-21 22:02 229 12 6.1
2020-Feb-21 21:47 215 12 6.1
2020-Feb-21 21:31 202 12 6.1
2020-Feb-21 21:17 239 11 6.1
2020-Feb-21 21:02 222 12 6.1
2020-Feb-21 20:46 246 10 6.1
2020-Feb-21 20:31 220 12 6.1
2020-Feb-21 20:17 195 13 5.6
2020-Feb-21 20:01 186 12 5.6